{"data":{"norad_id":46029,"intl_designator":"2020-055C","name":"STARLINK-1526","alt_names":[],"object_type":"PAYLOAD","status":"ACTIVE","operator":null,"country":"US","launch_date":"2020-08-07","launch_site_code":"AFETR","launch_vehicle":null,"mission":null,"orbit_class":"UNKNOWN","rcs_meters":null,"size_class":null,"mass_kg":null,"dimensions":null,"purposes":["comms"],"wikipedia_slug":null,"has_3d_model":false,"image_url":null,"decayed_at":null,"tle_current":{"epoch":"2026-05-25T03:07:26.865120Z","epoch_age_seconds":59802,"freshness":"FRESH","line1":"1 46029U 20055C   26145.13017205 -.00000078  00000+0  94892-5 0  9992","line2":"2 46029  53.1600 131.6550 0001107  90.2646 269.8482 15.30195550320597","mean_motion":15.3019555,"eccentricity":0.0001107,"inclination_deg":53.16,"raan_deg":131.655,"arg_perigee_deg":90.2646,"mean_anomaly_deg":269.8482,"bstar":9.4892e-6,"rev_number":32059,"period_min":94.105619376556,"perigee_km":474.46968880446,"apogee_km":475.98702389435,"semimajor_km":6853.3653563494,"source":"CELESTRAK","updated_at":"2026-05-25T13:38:16.458753Z"}}}